Regional Weather Roundup
Issued by NWS

Home | Current Version | Previous Version | Text Only | Print | Product List | Glossary Off
Versions: 1 2 3 4 5 6 7 8 9 10 11 12 13 14 15 16 17 18 19 20 21 22 23 24 25 26 27 28 29 30 31 32 33 34 35 36 37 38 39 40 41 42 43 44 45 46 47 48

000
ASUS45 KSLC 292310
RWRUT

UTAH REGIONAL WEATHER ROUNDUP
NATIONAL WEATHER SERVICE SALT LAKE CITY UT
500 PM MDT SUN MAR 29 2015

UTZ001>011-023>025-300000-

NORTHERN UTAH

CITY           SKY/WX    TMP DP  RH WIND       PRES   REMARKS
BRIGHAM CITY   SUNNY     63   5  10 CALM      30.23F
HILL AFB       NOT AVBL
LOGAN          SUNNY     64  15  15 NW7       30.22F
OGDEN          SUNNY     64  14  14 MISG      30.22F
PROVO AIRPORT  SUNNY     64  25  22 VRB5      30.19F
SALT LAKE CITY MOSUNNY   65  22  19 N12       30.20F
VERNAL         SUNNY     66  14  13 CALM      30.16F
WENDOVER       SUNNY     63  16  16 CALM      30.22F
HEBER CITY     SUNNY     68  18  14 SW14      30.19F
WEST JORDAN    SUNNY     64  27  24 NW15      30.22F

$$

UTZ012>022-026-027-300000-

SOUTHERN/CENTRAL UTAH

CITY           SKY/WX    TMP DP  RH WIND       PRES   REMARKS
BLANDING       SUNNY     73  18  12 SW10G18   30.23F
BRYCE CANYON   PTSUNNY   63  23  21 S9        30.30F
CEDAR CITY     MOSUNNY   73  15  11 CALM      30.17F
DELTA          SUNNY     70   8   9 NW5       30.18F
HANKSVILLE     SUNNY     77  10   8 SE8       30.12F
MILFORD        SUNNY     71  17  12 N10       30.16F
MOAB/CYNLANDS  SUNNY     75  -5   4 W5        30.11F
PRICE          SUNNY     72   9   8 S6        30.17F
ST GEORGE      CLEAR     82  27  13 W5        30.04F
KANAB          MOSUNNY   77  21  12 S6        30.15F

$$

REGIONAL REPORTS     COLORADO/ARIZONA

CITY           SKY/WX    TMP DP  RH WIND       PRES   REMARKS
CRAIG, CO      MOSUNNY   66  16  14 NW12      30.19F
GRAND JUNCTION SUNNY     72   9   8 W9G18     30.12F
RIFLE          SUNNY     71   6   8 W7        30.13F
MONTROSE       SUNNY     72   7   8 NW13      30.17F
CORTEZ         SUNNY     74  12   9 W15G23    30.16F
PAGE, AZ       SUNNY     80  19  10 NE6       30.09F
GRAND CANYON   MOSUNNY   70  18  13 VRB5      30.23F
KINGMAN        MOSUNNY   82  21  10 SW10      30.07F
FLAGSTAFF      PTSUNNY   67  14  13 SW9       30.26F

$$

REGIONAL REPORTS    NEVADA/IDAHO/WYOMING

CITY           SKY/WX    TMP DP  RH WIND       PRES   REMARKS
LAS VEGAS, NV  MOSUNNY   88  16   7 VRB5      29.96F
ELY            MOSUNNY   69  13  11 S6G21     30.18F
ELKO           SUNNY     69  -4   5 SE3       30.18F
POCATELLO, ID  SUNNY     64  13  13 W18       30.21F
BURLEY         SUNNY     64  17  16 W9        30.20F
EVANSTON, WY   SUNNY     60  17  18 W16       30.26F
ROCK SPRINGS   MOSUNNY   59   7  12 W23G30    30.22F
KEMMERER       SUNNY     57  10  15 W16G23    30.25F

$$



USA.gov is the U.S. government's official web portal to all federal, state and local government web resources and services.